Location: Drummondville
(45.8830°N, 72.4830°W)
Time: 10:50:17
(UTC-05:00)

OTV 5 (USA 277) - Pass Details

Date: 13 November 2017
Orbit: 404 x 417 km, 43.0° (Epoch: 07 September)

Event Time Altitude Azimuth Distance (km) Brightness Sun altitude
Exits shadow 04:29:16 31° 128° (SE) 732 ? -24.1°
Drops below altitude 10° 04:31:27 10° 97° (E) 1,456 ? -23.7°
Sets 04:33:37 0° 89° (E) 2,317 ? -23.3°
